Overview Statistics Trail Chart Weather Telemetry Raw packets
 

This is the latest recevied weather packets stored in our database for station/object N6ZHV-13. If no packets are shown the sender has not sent any weather packets the latest 10 day(s).

<< 68 69 70 71 72 73 74 >>
Time Temp. Humidity Pressure Rain* Wind** Luminosity Snow
1788215228 27.22° C 57% 1008.6 hPa 0 mm - - -
1788214928 27.22° C 58% 1008.6 hPa 0 mm - - -
1788214628 27.22° C 59% 1008.7 hPa 0 mm - - -
1788214328 27.22° C 60% 1008.8 hPa 0 mm - - -
1788214028 27.22° C 59% 1008.8 hPa 0 mm - - -
1788213728 27.22° C 58% 1008.9 hPa 0 mm - - -
1788213428 27.22° C 58% 1008.9 hPa 0 mm - - -
1788213128 27.22° C 57% 1008.9 hPa 0 mm - - -
1788212828 27.22° C 57% 1008.9 hPa 0 mm - - -
1788212528 27.78° C 55% 1009 hPa 0 mm - - -
1788212228 27.22° C 53% 1009 hPa 0 mm - - -
1788211928 28.33° C 54% 1009 hPa 0 mm - - -
1788211628 28.33° C 53% 1009.1 hPa 0 mm - - -
1788211328 27.78° C 56% 1009.1 hPa 0 mm - - -
1788211028 27.78° C 54% 1009.2 hPa 0 mm - - -
1788210728 28.33° C 53% 1009.2 hPa 0 mm - - -
1788210428 28.33° C 53% 1009.2 hPa 0 mm - - -
1788210128 28.33° C 54% 1009.3 hPa 0 mm - - -
1788209831 27.22° C 56% 1009.4 hPa 0 mm - - -
1788209828 27.22° C 56% 1009.4 hPa 0 mm - - -
1788209528 27.78° C 56% 1009.4 hPa 0 mm - - -
1788209231 - - - - - - -
1788209228 27.22° C 57% 1009.3 hPa 0 mm - - -
1788208928 27.22° C 59% 1009.4 hPa 0 mm - - -
1788208628 27.78° C 58% 1009.3 hPa 0 mm - - -

* Rain latest hour (hover to see other rain measurements)
** Current wind speed in m/s (hover to see current wind gust speed)